IGO104J VABB-VANP

Flight info

Callsign IGO104J
Flight time N/A
Altitude 33000
Route ANOLI2A AAU G450 NNP
Aircraft A320/M-SDE3FGHIRWY/LB1

Departure

Time 2026-04-27 11:25
Airport Chhatrapati Shivaji Maharaj International Airport (VABB)

Arrival

Time N/A
Airport Dr. Babasaheb Ambedkar International Airport (VANP)
Time Latitude Longitude Altitude Speed Heading
2026-04-27 11:08 19.09192 72.85767 25 ft 0 kts 339°
2026-04-27 11:15 19.09180 72.85772 26 ft 3 kts 330°
2026-04-27 11:16 19.09165 72.85784 27 ft 3 kts 297°
2026-04-27 11:16 19.09161 72.85799 26 ft 3 kts 234°
2026-04-27 11:16 19.09166 72.85806 28 ft 0 kts 210°
2026-04-27 11:18 19.09163 72.85804 29 ft 1 kts 210°
2026-04-27 11:19 19.09148 72.85794 27 ft 4 kts 210°
2026-04-27 11:19 19.09117 72.85775 25 ft 6 kts 210°
2026-04-27 11:19 19.09070 72.85747 25 ft 9 kts 208°
2026-04-27 11:19 19.09026 72.85789 27 ft 15 kts 85°
2026-04-27 11:20 19.09028 72.85909 25 ft 17 kts 87°
2026-04-27 11:20 19.09031 72.86040 24 ft 19 kts 89°
2026-04-27 11:20 19.09031 72.86079 24 ft 19 kts 89°
2026-04-27 11:20 19.09033 72.86228 24 ft 21 kts 90°
2026-04-27 11:21 19.09035 72.86388 24 ft 23 kts 88°
2026-04-27 11:21 19.09039 72.86561 25 ft 24 kts 87°
2026-04-27 11:21 19.09042 72.86743 26 ft 25 kts 89°
2026-04-27 11:21 19.09042 72.86916 28 ft 24 kts 89°
2026-04-27 11:22 19.09045 72.87076 26 ft 20 kts 88°
2026-04-27 11:22 19.09047 72.87232 26 ft 22 kts 90°
2026-04-27 11:22 19.09048 72.87399 25 ft 24 kts 88°
2026-04-27 11:22 19.09053 72.87581 25 ft 26 kts 89°
2026-04-27 11:23 19.09055 72.87749 27 ft 13 kts 93°
2026-04-27 11:23 19.09054 72.87839 25 ft 13 kts 90°
2026-04-27 11:23 19.09055 72.87942 25 ft 15 kts 88°
2026-04-27 11:23 19.09035 72.88044 27 ft 14 kts 161°
2026-04-27 11:24 19.08926 72.88052 23 ft 15 kts 184°
2026-04-27 11:24 19.08884 72.88012 23 ft 7 kts 292°
2026-04-27 11:24 19.08887 72.87949 24 ft 16 kts 269°
2026-04-27 11:24 19.08883 72.87574 24 ft 84 kts 268°
2026-04-27 11:25 19.08871 72.86760 27 ft 134 kts 269°
2026-04-27 11:25 19.08854 72.85645 243 ft 156 kts 268°
2026-04-27 11:25 19.08858 72.84519 942 ft 153 kts 271°
2026-04-27 11:25 19.08845 72.83392 1548 ft 154 kts 269°
2026-04-27 11:26 19.08827 72.82239 1978 ft 163 kts 271°
2026-04-27 11:26 19.08808 72.80958 2153 ft 185 kts 271°
2026-04-27 11:26 19.09011 72.79554 2285 ft 205 kts 297°
2026-04-27 11:26 19.10049 72.78445 2454 ft 228 kts 336°
2026-04-27 11:27 19.11685 72.78278 2745 ft 254 kts 14°
2026-04-27 11:27 19.13197 72.79288 3358 ft 267 kts 46°
2026-04-27 11:27 19.14238 72.80946 4099 ft 275 kts 64°
2026-04-27 11:27 19.14889 72.82862 4863 ft 278 kts 68°
2026-04-27 11:28 19.15524 72.84804 5614 ft 281 kts 69°
2026-04-27 11:28 19.16160 72.86762 6385 ft 283 kts 69°
2026-04-27 11:28 19.16801 72.88742 7087 ft 287 kts 69°
2026-04-27 11:28 19.17451 72.90755 7776 ft 291 kts 70°
2026-04-27 11:29 19.18118 72.92821 8501 ft 295 kts 70°
2026-04-27 11:29 19.18786 72.94890 9211 ft 299 kts 70°
2026-04-27 11:29 19.19462 72.96986 9878 ft 304 kts 71°
2026-04-27 11:29 19.20166 72.99174 10124 ft 325 kts 71°
2026-04-27 11:30 19.20922 73.01516 10254 ft 347 kts 71°
2026-04-27 11:30 19.21722 73.03999 10442 ft 365 kts 71°
2026-04-27 11:30 19.22548 73.06567 10925 ft 371 kts 71°
2026-04-27 11:30 19.23380 73.09158 11509 ft 374 kts 71°
2026-04-27 11:31 19.24222 73.11781 12107 ft 377 kts 71°
2026-04-27 11:31 19.25067 73.14417 12748 ft 380 kts 71°
2026-04-27 11:31 19.25922 73.17080 13364 ft 383 kts 71°
2026-04-27 11:31 19.26779 73.19757 13923 ft 386 kts 71°
2026-04-27 11:32 19.27645 73.22456 14432 ft 389 kts 71°
2026-04-27 11:32 19.28521 73.25180 14957 ft 392 kts 71°
2026-04-27 11:32 19.29406 73.27930 15478 ft 396 kts 71°
2026-04-27 11:32 19.30294 73.30697 15986 ft 399 kts 71°
2026-04-27 11:33 19.31187 73.33487 16506 ft 402 kts 71°
2026-04-27 11:33 19.32087 73.36297 17026 ft 405 kts 71°
2026-04-27 11:33 19.32993 73.39137 17552 ft 408 kts 71°
2026-04-27 11:33 19.33904 73.41994 18061 ft 411 kts 71°
2026-04-27 11:34 19.34821 73.44872 18461 ft 415 kts 71°
2026-04-27 11:34 19.35753 73.47788 18845 ft 420 kts 71°
2026-04-27 11:34 19.36697 73.50736 19221 ft 425 kts 71°
2026-04-27 11:34 19.37650 73.53714 19623 ft 429 kts 71°
2026-04-27 11:35 19.38614 73.56727 20031 ft 433 kts 71°
2026-04-27 11:35 19.39582 73.59752 20426 ft 437 kts 71°
2026-04-27 11:35 19.40561 73.62821 20838 ft 440 kts 71°
2026-04-27 11:35 19.41543 73.65911 21244 ft 444 kts 71°
2026-04-27 11:36 19.42531 73.69021 21654 ft 447 kts 71°
2026-04-27 11:36 19.43525 73.72161 22019 ft 452 kts 71°
2026-04-27 11:36 19.44533 73.75355 22377 ft 455 kts 71°
2026-04-27 11:36 19.45548 73.78564 22724 ft 459 kts 71°
2026-04-27 11:37 19.46565 73.81780 23061 ft 463 kts 71°
2026-04-27 11:37 19.47596 73.85026 23401 ft 467 kts 71°
2026-04-27 11:37 19.48639 73.88302 23680 ft 470 kts 71°
2026-04-27 11:37 19.49685 73.91603 23945 ft 474 kts 71°
2026-04-27 11:38 19.50736 73.94923 24232 ft 477 kts 71°
2026-04-27 11:38 19.51793 73.98268 24500 ft 480 kts 71°
2026-04-27 11:38 19.52854 74.01639 24782 ft 484 kts 71°
2026-04-27 11:38 19.53924 74.05036 25048 ft 487 kts 71°
2026-04-27 11:39 19.55003 74.08458 25333 ft 490 kts 71°
2026-04-27 11:39 19.56089 74.11897 25599 ft 494 kts 71°
2026-04-27 11:39 19.57181 74.15358 25858 ft 497 kts 71°
2026-04-27 11:39 19.58281 74.18843 26127 ft 500 kts 71°
2026-04-27 11:40 19.59386 74.22355 26384 ft 503 kts 71°
2026-04-27 11:40 19.60493 74.25880 26647 ft 507 kts 71°
2026-04-27 11:40 19.61608 74.29442 26908 ft 510 kts 71°
2026-04-27 11:40 19.62726 74.33021 27172 ft 513 kts 71°
2026-04-27 11:41 19.63852 74.36621 27433 ft 516 kts 71°
2026-04-27 11:41 19.65002 74.40294 27704 ft 519 kts 71°
2026-04-27 11:41 19.66126 74.43886 28007 ft 521 kts 71°
2026-04-27 11:41 19.67266 74.47529 28400 ft 521 kts 70°
2026-04-27 11:42 19.68419 74.51220 28776 ft 521 kts 70°
2026-04-27 11:42 19.69560 74.54871 29150 ft 522 kts 70°
2026-04-27 11:42 19.70705 74.58537 29533 ft 523 kts 70°
2026-04-27 11:42 19.71848 74.62207 29890 ft 524 kts 70°
2026-04-27 11:43 19.72992 74.65882 30212 ft 525 kts 71°
2026-04-27 11:43 19.74136 74.69566 30544 ft 525 kts 71°
2026-04-27 11:43 19.75281 74.73249 30874 ft 526 kts 71°
2026-04-27 11:43 19.76426 74.76929 31217 ft 526 kts 71°
2026-04-27 11:44 19.77189 74.79379 31451 ft 526 kts 71°
2026-04-27 11:44 19.78724 74.84323 31922 ft 527 kts 71°
2026-04-27 11:44 19.79498 74.86822 32161 ft 527 kts 71°
2026-04-27 11:44 19.81015 74.91721 32637 ft 528 kts 71°
2026-04-27 11:45 19.81771 74.94166 32872 ft 528 kts 71°
2026-04-27 11:45 19.82917 74.97872 33232 ft 528 kts 71°
2026-04-27 11:45 19.84078 75.01632 33602 ft 529 kts 72°
2026-04-27 11:45 19.85223 75.05351 33949 ft 529 kts 72°
2026-04-27 11:46 19.86365 75.09065 34263 ft 529 kts 72°
2026-04-27 11:46 19.87507 75.12773 34599 ft 529 kts 72°
2026-04-27 11:46 19.88654 75.16489 34749 ft 529 kts 72°
2026-04-27 11:46 19.89807 75.20222 34787 ft 534 kts 72°
2026-04-27 11:47 19.92126 75.27753 34785 ft 538 kts 72°
2026-04-27 11:47 19.94446 75.35308 34783 ft 538 kts 72°
2026-04-27 11:48 19.96767 75.42869 34783 ft 538 kts 72°
2026-04-27 11:48 19.99090 75.50486 34784 ft 538 kts 72°
2026-04-27 11:49 20.01394 75.58060 34783 ft 538 kts 72°
2026-04-27 11:49 20.03705 75.65635 34780 ft 539 kts 72°
2026-04-27 11:50 20.06021 75.73215 34779 ft 539 kts 72°
2026-04-27 11:50 20.08327 75.80809 34775 ft 540 kts 72°
2026-04-27 11:51 20.10628 75.88414 34775 ft 540 kts 72°
2026-04-27 11:52 20.14081 75.99841 34777 ft 541 kts 72°
2026-04-27 11:52 20.16384 76.07465 34778 ft 541 kts 72°
2026-04-27 11:53 20.18680 76.15086 34775 ft 541 kts 72°
2026-04-27 11:53 20.20981 76.22713 34773 ft 541 kts 72°
2026-04-27 11:54 20.23275 76.30330 34769 ft 540 kts 72°
2026-04-27 11:54 20.25564 76.37957 34767 ft 540 kts 72°
2026-04-27 11:55 20.27836 76.45579 34762 ft 540 kts 72°
2026-04-27 11:55 20.30129 76.53256 34755 ft 540 kts 72°
2026-04-27 11:56 20.32403 76.60886 34752 ft 540 kts 72°
2026-04-27 11:56 20.34677 76.68513 34747 ft 540 kts 71°
2026-04-27 11:57 20.36952 76.76135 34740 ft 540 kts 71°
2026-04-27 11:57 20.39216 76.83772 34735 ft 540 kts 72°
2026-04-27 11:58 20.41474 76.91409 34732 ft 540 kts 71°
2026-04-27 11:58 20.43729 76.99048 34733 ft 541 kts 71°
2026-04-27 11:59 20.45998 77.06750 34727 ft 541 kts 71°
2026-04-27 11:59 20.48253 77.14407 34722 ft 541 kts 71°
2026-04-27 12:00 20.50508 77.22057 34720 ft 541 kts 71°
2026-04-27 12:00 20.52779 77.29765 34720 ft 541 kts 71°
2026-04-27 12:01 20.55021 77.37435 34721 ft 541 kts 71°
2026-04-27 12:01 20.56139 77.41271 34607 ft 542 kts 71°
2026-04-27 12:01 20.57262 77.45121 34153 ft 543 kts 71°
2026-04-27 12:01 20.58383 77.48965 33573 ft 543 kts 71°
2026-04-27 12:02 20.59510 77.52806 32929 ft 542 kts 71°
2026-04-27 12:02 20.60640 77.56647 32311 ft 541 kts 71°
2026-04-27 12:02 20.61761 77.60472 31701 ft 540 kts 71°
2026-04-27 12:02 20.62870 77.64287 31102 ft 538 kts 71°
2026-04-27 12:03 20.63971 77.68101 30513 ft 536 kts 71°
2026-04-27 12:03 20.65066 77.71893 29944 ft 534 kts 71°
2026-04-27 12:03 20.66161 77.75672 29305 ft 532 kts 71°
2026-04-27 12:03 20.67254 77.79439 28641 ft 530 kts 71°
2026-04-27 12:04 20.68341 77.83185 28002 ft 528 kts 71°
2026-04-27 12:04 20.69194 77.86993 27367 ft 528 kts 79°
2026-04-27 12:04 20.69829 77.90845 26750 ft 524 kts 79°
2026-04-27 12:04 20.70460 77.94649 26145 ft 517 kts 79°
2026-04-27 12:05 20.71082 77.98401 25554 ft 510 kts 79°
2026-04-27 12:05 20.71695 78.02105 24974 ft 503 kts 79°
2026-04-27 12:05 20.72305 78.05804 24401 ft 495 kts 79°
2026-04-27 12:05 20.72899 78.09404 23845 ft 488 kts 80°
2026-04-27 12:06 20.73483 78.12950 23294 ft 480 kts 80°
2026-04-27 12:06 20.74049 78.16386 22653 ft 473 kts 80°
2026-04-27 12:06 20.74623 78.19863 22082 ft 468 kts 80°
2026-04-27 12:06 20.75180 78.23239 21522 ft 452 kts 80°
2026-04-27 12:07 20.75715 78.26503 20957 ft 441 kts 80°
2026-04-27 12:07 20.76239 78.29709 20468 ft 436 kts 80°
2026-04-27 12:07 20.76759 78.32885 19983 ft 431 kts 80°
2026-04-27 12:07 20.77275 78.36025 19486 ft 427 kts 79°
2026-04-27 12:08 20.77786 78.39137 19008 ft 423 kts 79°
2026-04-27 12:08 20.78292 78.42225 18527 ft 419 kts 79°
2026-04-27 12:08 20.78790 78.45281 18055 ft 415 kts 80°
2026-04-27 12:08 20.79280 78.48303 17534 ft 411 kts 79°
2026-04-27 12:09 20.79766 78.51299 16991 ft 407 kts 79°
2026-04-27 12:09 20.80249 78.54267 16478 ft 404 kts 79°
2026-04-27 12:09 20.80727 78.57218 15946 ft 400 kts 79°
2026-04-27 12:09 20.81193 78.60103 15416 ft 389 kts 79°
2026-04-27 12:10 20.81649 78.62915 14894 ft 379 kts 79°
2026-04-27 12:10 20.82096 78.65656 14380 ft 370 kts 79°
2026-04-27 12:10 20.82530 78.68334 13877 ft 363 kts 78°
2026-04-27 12:10 20.82957 78.70984 13371 ft 359 kts 78°
2026-04-27 12:11 20.83373 78.73585 12823 ft 352 kts 78°
2026-04-27 12:11 20.83784 78.76136 12348 ft 344 kts 78°
2026-04-27 12:11 20.84186 78.78633 11888 ft 338 kts 78°
2026-04-27 12:11 20.84582 78.81082 11429 ft 329 kts 78°
2026-04-27 12:12 20.84964 78.83457 10975 ft 320 kts 78°
2026-04-27 12:12 20.85334 78.85770 10529 ft 312 kts 78°
2026-04-27 12:12 20.85699 78.88048 10097 ft 311 kts 78°
2026-04-27 12:12 20.86067 78.90336 9675 ft 314 kts 78°
2026-04-27 12:13 20.86438 78.92642 9268 ft 314 kts 78°
2026-04-27 12:13 20.86804 78.94926 8840 ft 309 kts 78°
2026-04-27 12:13 20.87046 78.96442 8558 ft 305 kts 78°
2026-04-27 12:13 20.87513 78.99381 8008 ft 298 kts 79°
2026-04-27 12:14 20.87856 79.01535 7612 ft 290 kts 79°
2026-04-27 12:14 20.88081 79.02957 7343 ft 285 kts 79°
2026-04-27 12:14 20.88409 79.05024 6950 ft 279 kts 79°
2026-04-27 12:14 20.88730 79.07042 6617 ft 271 kts 79°
2026-04-27 12:15 20.89040 79.08997 6303 ft 263 kts 78°
2026-04-27 12:15 20.89347 79.10910 5937 ft 259 kts 78°
2026-04-27 12:15 20.89666 79.12787 5561 ft 253 kts 73°
2026-04-27 12:15 20.90411 79.14425 5258 ft 240 kts 49°
2026-04-27 12:16 20.91644 79.15546 4980 ft 229 kts 25°
2026-04-27 12:16 20.93139 79.16063 4486 ft 227 kts
2026-04-27 12:16 20.94688 79.15902 4118 ft 221 kts 340°
2026-04-27 12:16 20.96016 79.15152 3854 ft 215 kts 322°
2026-04-27 12:17 20.97216 79.14205 3600 ft 214 kts 322°
2026-04-27 12:17 20.98411 79.13259 3320 ft 213 kts 322°
2026-04-27 12:17 20.99601 79.12319 3062 ft 211 kts 322°
2026-04-27 12:17 21.00749 79.11415 2809 ft 200 kts 322°
2026-04-27 12:18 21.01832 79.10561 2587 ft 186 kts 321°
2026-04-27 12:18 21.02839 79.09766 2345 ft 174 kts 322°
2026-04-27 12:18 21.03778 79.09025 2150 ft 161 kts 321°
2026-04-27 12:18 21.04648 79.08338 1955 ft 152 kts 321°
2026-04-27 12:19 21.05498 79.07666 1782 ft 149 kts 321°
2026-04-27 12:19 21.06323 79.07013 1601 ft 149 kts 321°
2026-04-27 12:19 21.07169 79.06344 1389 ft 150 kts 321°
2026-04-27 12:19 21.08017 79.05676 1208 ft 151 kts 321°
2026-04-27 12:20 21.08849 79.05012 1024 ft 146 kts 322°
2026-04-27 12:20 21.09660 79.04380 1241 ft 152 kts 323°
2026-04-27 12:20 21.10607 79.03723 1759 ft 168 kts 325°
2026-04-27 12:20 21.11642 79.03045 1918 ft 182 kts 327°
2026-04-27 12:21 21.12777 79.02314 2055 ft 199 kts 327°
2026-04-27 12:21 21.14000 79.01510 2399 ft 204 kts 327°
2026-04-27 12:21 21.15114 79.00616 2561 ft 197 kts 308°
2026-04-27 12:21 21.15556 78.99292 2512 ft 185 kts 269°
2026-04-27 12:22 21.15106 78.98074 2497 ft 179 kts 227°
2026-04-27 12:22 21.14006 78.97505 2492 ft 181 kts 185°
2026-04-27 12:22 21.12779 78.97824 2505 ft 184 kts 155°
2026-04-27 12:22 21.11653 78.98483 2502 ft 185 kts 150°
2026-04-27 12:23 21.10555 78.99182 2511 ft 183 kts 150°
2026-04-27 12:23 21.09471 78.99882 2498 ft 182 kts 150°
2026-04-27 12:23 21.08395 79.00583 2476 ft 176 kts 150°
2026-04-27 12:23 21.07376 79.01256 2265 ft 168 kts 150°
2026-04-27 12:24 21.06411 79.01893 2087 ft 160 kts 150°